Location: Azul
(36.7830°S, 59.8500°W)
Time: 00:36:25
(UTC-03:00)

DELFI C3 - Pass Details

Date: 01 November 2021
Orbit: 529 x 543 km, 97.4° (Epoch: 30 November)

Event Time Altitude Azimuth Distance (km) Brightness Sun altitude
Rises 20:18:07 0° 157° (SSE) 2,727 ? -9.2°
Reaches altitude 10° 20:20:28 10° 146° (SE) 1,823 ? -9.6°
Maximum altitude 20:23:57 30° 84° (E) 990 ? -10.3°
Drops below altitude 10° 20:27:24 10° 21° (NNE) 1,790 ? -10.9°
Enters shadow 20:28:09 - 16° (NNE) 2,071 ? -11.0°
